DG1UDO-13 Weather Reports


time (UTC)temp
F
wind
direction
speed
knots
gust
knots
rain 1hr
in
rain 24hr
in
rain mn
in
humidity
%
barometer
mb
20260505173500 56 43 4.3 0.0 0.00 0.00 0.00 74 1010.6
20260505170500 56 112 3.5 0.0 0.00 0.00 0.00 75 1010.5
20260505163500 56 56 1.7 0.0 0.00 0.00 0.00 74 1010.7
20260505160500 56 87 3.5 0.0 0.00 0.00 0.00 76 1011.0
20260505150500 57 74 0.9 0.0 0.00 0.00 0.00 78 1011.2
20260505140500 56 82 2.6 0.0 0.00 0.00 0.00 80 1011.0
20260505123500 56 106 2.6 0.0 0.00 0.00 0.00 76 1011.4
20260505120500 56 56 2.6 0.0 0.00 0.00 0.00 73 1011.7
20260505113500 56 55 2.6 0.0 0.00 0.00 0.00 74 1011.6
20260505110500 55 29 2.6 0.0 0.00 0.00 0.00 76 1012.1
20260505100500 54 16 7.0 0.0 0.00 0.00 0.00 78 1012.4
20260505093500 53 6 2.6 0.0 0.00 0.00 0.00 79 1012.4
20260505090500 51 40 2.6 0.0 0.00 0.00 0.00 83 1012.3
20260505083500 49 56 1.7 0.0 0.00 0.00 0.00 88 1012.5
20260505080500 48 44 3.5 0.0 0.00 0.00 0.00 90 1012.5
20260505073500 47 2 2.6 0.0 0.00 0.00 0.00 91 1012.8
20260505070500 47 52 2.6 0.0 0.00 0.00 0.00 92 1012.6
20260505063500 46 7 5.2 0.0 0.00 0.00 0.00 92 1012.8
20260505060500 46 39 1.7 0.0 0.00 0.00 0.00 92 1012.7
20260505053500 45 58 2.6 0.0 0.00 0.00 0.00 92 1012.6
20260505050500 45 66 2.6 0.0 0.00 0.00 0.00 92 1012.6
20260505040500 45 34 1.7 0.0 0.00 0.00 0.00 94 1012.5
20260505033500 45 31 0.0 0.0 0.00 0.00 0.00 94 1012.7
20260505030500 46 352 0.9 0.0 0.00 0.00 0.00 94 1012.9
20260505023500 46 17 0.9 0.0 0.00 0.00 0.00 92 1012.9
20260505020500 47 15 0.9 0.0 0.00 0.00 0.00 89 1013.0
20260505013500 47 46 2.6 0.0 0.00 0.00 0.00 87 1013.2
20260505010500 47 10 0.9 0.0 0.00 0.00 0.00 89 1013.4
20260505003500 47 349 1.7 0.0 0.00 0.00 0.00 89 1013.9
20260505000502 48 49 0.0 0.0 0.00 0.00 0.00 88 1014.0
20260504233500 48 39 4.3 0.0 0.00 0.00 0.00 87 1013.8
20260504230500 48 15 0.9 0.0 0.00 0.00 0.00 87 1013.7
20260504223500 49 341 1.7 0.0 0.00 0.00 0.00 88 1014.0
20260504220500 49 322 1.7 0.0 0.00 0.00 0.00 90 1014.2
20260504213500 50 341 0.9 0.0 0.00 0.00 0.00 92 1014.2
20260504210500 50 345 0.0 0.0 0.00 0.00 0.00 91 1014.1
20260504203500 50 337 0.0 0.0 0.00 0.00 0.00 90 1014.2
20260504200500 51 338 0.0 0.0 0.00 0.00 0.00 89 1014.1
20260504193500 53 43 0.9 0.0 0.00 0.00 0.00 86 1014.1
20260504190500 54 18 1.7 0.0 0.00 0.00 0.00 86 1014.1
20260504183500 55 344 2.6 0.0 0.00 0.00 0.00 83 1014.0
20260504180500 56 341 1.7 0.0 0.00 0.00 0.00 81 1013.9